EW2013 Weather Reports


Display with metric or nautical units.
time (UTC)temp
F
wind
direction
speed
MPH
gust
MPH
rain 1hr
in
rain 24hr
in
rain mn
in
humidity
%
barometer
mb
20240225115704 48 196 3.0 9.0 0.00 0.00 0.00 20 1012.0
20240225114704 48 198 4.0 9.0 0.00 0.00 0.00 20 1011.9
20240225113704 48 213 5.0 10.0 0.00 0.00 0.00 20 1012.0
20240225113204 47 164 4.0 14.0 0.00 0.00 0.00 20 1011.9
20240225112704 47 177 5.0 14.0 0.00 0.00 0.00 20 1011.8
20240225112205 47 188 5.0 9.0 0.00 0.00 0.00 20 1011.8
20240225111704 46 163 4.0 9.0 0.00 0.00 0.00 20 1011.7
20240225110705 47 173 4.0 9.0 0.00 0.00 0.00 21 1011.7
20240225110209 47 180 4.0 10.0 0.00 0.00 0.00 20 1011.9
20240225105704 46 227 5.0 10.0 0.00 0.00 0.00 20 1011.8
20240225105205 46 169 5.0 10.0 0.00 0.00 0.00 21 1011.8
20240225104704 46 180 5.0 9.0 0.00 0.00 0.00 20 1012.0
20240225104204 47 180 5.0 9.0 0.00 0.00 0.00 20 1012.1
20240225103705 47 183 4.0 9.0 0.00 0.00 0.00 20 1012.0
20240225103204 47 176 4.0 9.0 0.00 0.00 0.00 20 1012.1
20240225101704 47 180 4.0 8.0 0.00 0.00 0.00 19 1012.4
20240225101204 47 173 4.0 11.0 0.00 0.00 0.00 19 1012.4
20240225100704 47 163 5.0 12.0 0.00 0.00 0.00 19 1012.2
20240225100206 47 200 6.0 12.0 0.00 0.00 0.00 19 1012.4
20240225095205 48 180 6.0 10.0 0.00 0.00 0.00 19 1012.5
20240225094704 48 163 4.0 11.0 0.00 0.00 0.00 19 1012.7
20240225094204 49 182 4.0 11.0 0.00 0.00 0.00 18 1012.8
20240225093704 49 234 4.0 11.0 0.00 0.00 0.00 18 1012.8
20240225093204 49 207 5.0 9.0 0.00 0.00 0.00 18 1012.8
20240225092704 49 200 5.0 12.0 0.00 0.00 0.00 18 1012.8
20240225092204 49 190 5.0 12.0 0.00 0.00 0.00 17 1012.8
20240225091704 50 192 6.0 12.0 0.00 0.00 0.00 17 1012.8
20240225091205 49 192 5.0 11.0 0.00 0.00 0.00 17 1012.9
20240225090704 49 215 5.0 9.0 0.00 0.00 0.00 18 1012.8
20240225090204 49 203 4.0 10.0 0.00 0.00 0.00 18 1012.9
20240225085704 49 200 4.0 10.0 0.00 0.00 0.00 18 1012.9
20240225085204 49 218 5.0 10.0 0.00 0.00 0.00 18 1013.1
20240225084705 48 213 3.0 10.0 0.00 0.00 0.00 18 1013.1
20240225084204 48 209 2.0 6.0 0.00 0.00 0.00 18 1013.2
20240225083706 48 194 1.0 6.0 0.00 0.00 0.00 18 1013.3
20240225083204 48 216 1.0 6.0 0.00 0.00 0.00 18 1013.4
20240225082704 48 211 0.0 8.0 0.00 0.00 0.00 18 1013.4
20240225082204 49 217 2.0 10.0 0.00 0.00 0.00 18 1013.5
20240225081704 49 217 4.0 10.0 0.00 0.00 0.00 18 1013.6
20240225081204 48 203 5.0 10.0 0.00 0.00 0.00 18 1013.5
20240225080204 47 188 2.0 5.0 0.00 0.00 0.00 20 1013.5
20240225075204 47 133 0.0 4.0 0.00 0.00 0.00 19 1013.6
20240225074705 47 133 1.0 5.0 0.00 0.00 0.00 20 1013.6
20240225073704 48 74 0.0 11.0 0.00 0.00 0.00 19 1013.5
20240225073205 47 240 2.0 11.0 0.00 0.00 0.00 20 1013.6
20240225072704 47 238 4.0 9.0 0.00 0.00 0.00 20 1013.6
20240225072205 46 163 3.0 8.0 0.00 0.00 0.00 21 1013.5
20240225071704 45 188 2.0 8.0 0.00 0.00 0.00 22 1013.6
20240225070205 46 132 3.0 6.0 0.00 0.00 0.00 21 1013.9
20240225065704 46 134 3.0 6.0 0.00 0.00 0.00 21 1014.0
20240225065204 47 134 3.0 6.0 0.00 0.00 0.00 19 1014.1
20240225064704 47 140 4.0 10.0 0.00 0.00 0.00 19 1014.1
20240225064204 49 144 4.0 10.0 0.00 0.00 0.00 18 1014.1
20240225062704 49 158 4.0 8.0 0.00 0.00 0.00 17 1014.1
20240225062205 50 154 3.0 9.0 0.00 0.00 0.00 17 1014.2
20240225061704 51 165 3.0 9.0 0.00 0.00 0.00 17 1014.4
20240225061205 51 188 3.0 7.0 0.00 0.00 0.00 16 1014.2
20240225060704 52 234 3.0 11.0 0.00 0.00 0.00 16 1014.2
20240225060205 52 225 3.0 11.0 0.00 0.00 0.00 16 1014.2
20240225055704 52 202 3.0 10.0 0.00 0.00 0.00 16 1014.0
20240225055204 52 223 4.0 10.0 0.00 0.00 0.00 16 1014.1
20240225054704 52 223 4.0 10.0 0.00 0.00 0.00 15 1014.1
20240225054204 52 284 3.0 11.0 0.00 0.00 0.00 16 1014.1
20240225053205 52 204 4.0 11.0 0.00 0.00 0.00 16 1014.1
20240225052705 52 219 5.0 13.0 0.00 0.00 0.00 16 1014.2
20240225052204 52 202 4.0 16.0 0.00 0.00 0.00 16 1014.2
20240225051705 53 225 5.0 16.0 0.00 0.00 0.00 16 1014.2
20240225051204 53 269 6.0 15.0 0.00 0.00 0.00 16 1014.1
20240225050704 53 213 7.0 19.0 0.00 0.00 0.00 16 1014.0
20240225050204 53 252 8.0 19.0 0.00 0.00 0.00 16 1014.0
20240225045705 53 249 8.0 18.0 0.00 0.00 0.00 16 1013.9
20240225045204 53 250 8.0 19.0 0.00 0.00 0.00 16 1013.9
20240225044704 53 226 9.0 19.0 0.00 0.00 0.00 16 1013.8
20240225044204 53 311 9.0 17.0 0.00 0.00 0.00 16 1013.9
20240225043704 53 232 8.0 17.0 0.00 0.00 0.00 16 1013.9
20240225043205 53 207 8.0 18.0 0.00 0.00 0.00 16 1014.0
20240225042704 53 244 9.0 20.0 0.00 0.00 0.00 16 1013.9
20240225042205 53 261 10.0 20.0 0.00 0.00 0.00 16 1013.9
20240225041704 53 248 8.0 20.0 0.00 0.00 0.00 16 1014.0
20240225041204 53 254 6.0 17.0 0.00 0.00 0.00 16 1014.0
20240225040705 53 288 7.0 17.0 0.00 0.00 0.00 16 1014.1
20240225040205 53 217 7.0 18.0 0.00 0.00 0.00 16 1014.2
20240225035204 53 268 7.0 18.0 0.00 0.00 0.00 16 1014.1
20240225034704 53 237 6.0 14.0 0.00 0.00 0.00 17 1014.1
20240225033704 53 290 7.0 14.0 0.00 0.00 0.00 16 1014.2
20240225033204 53 273 7.0 16.0 0.00 0.00 0.00 17 1014.4
20240225032704 53 233 7.0 17.0 0.00 0.00 0.00 17 1014.4
20240225032204 54 261 8.0 17.0 0.00 0.00 0.00 17 1014.4
20240225031704 54 252 9.0 17.0 0.00 0.00 0.00 16 1014.4
20240225031205 53 245 9.0 18.0 0.00 0.00 0.00 17 1014.4
20240225030204 53 248 7.0 18.0 0.00 0.00 0.00 17 1014.5
20240225025704 53 227 7.0 14.0 0.00 0.00 0.00 17 1014.5
20240225025204 53 209 6.0 14.0 0.00 0.00 0.00 17 1014.6
20240225024705 53 263 5.0 11.0 0.00 0.00 0.00 17 1014.7
20240225023705 53 234 5.0 11.0 0.00 0.00 0.00 17 1014.8
20240225023204 54 246 5.0 16.0 0.00 0.00 0.00 17 1014.9
20240225022704 54 263 4.0 16.0 0.00 0.00 0.00 17 1014.8
20240225022204 53 272 3.0 16.0 0.00 0.00 0.00 17 1014.8
20240225021704 54 259 3.0 13.0 0.00 0.00 0.00 17 1014.9
20240225021204 54 279 4.0 13.0 0.00 0.00 0.00 17 1014.9
20240225015705 54 197 5.0 11.0 0.00 0.00 0.00 17 1014.9
20240225015204 54 261 4.0 10.0 0.00 0.00 0.00 17 1014.8
20240225014704 54 219 5.0 14.0 0.00 0.00 0.00 17 1014.9
20240225013204 54 241 5.0 16.0 0.00 0.00 0.00 16 1014.8
20240225012704 54 308 5.0 16.0 0.00 0.00 0.00 16 1014.8
20240225012204 55 254 5.0 16.0 0.00 0.00 0.00 16 1014.8
20240225011704 55 274 4.0 16.0 0.00 0.00 0.00 16 1014.8
20240225010704 55 294 4.0 13.0 0.00 0.00 0.00 15 1014.6
20240225010204 55 284 4.0 11.0 0.00 0.00 0.00 15 1014.6
20240225005704 55 264 5.0 12.0 0.00 0.00 0.00 15 1014.5
20240225005204 55 261 5.0 14.0 0.00 0.00 0.00 15 1014.5
20240225004704 55 281 6.0 14.0 0.00 0.00 0.00 16 1014.4
20240225004205 56 273 6.0 14.0 0.00 0.00 0.00 15 1014.2
20240225003204 56 266 6.0 14.0 0.00 0.00 0.00 15 1014.5
20240225002204 57 240 6.0 16.0 0.00 0.00 0.00 15 1014.5
20240225001704 57 277 6.0 16.0 0.00 0.00 0.00 14 1014.6
20240225000704 58 273 5.0 12.0 0.00 0.00 0.00 14 1014.7
20240225000205 58 237 6.0 12.0 0.00 0.00 0.00 13 1014.6
20240224235704 59 220 6.0 12.0 0.00 0.00 0.00 14 1014.6
20240224235204 59 272 6.0 12.0 0.00 0.00 0.00 13 1014.6
20240224234704 60 290 5.0 16.0 0.00 0.00 0.00 12 1014.7
20240224234205 60 284 6.0 16.0 0.00 0.00 0.00 12 1014.6
20240224233704 60 255 6.0 11.0 0.00 0.00 0.00 11 1014.6
20240224233205 61 290 4.0 10.0 0.00 0.00 0.00 12 1014.6
20240224232704 61 317 4.0 10.0 0.00 0.00 0.00 12 1014.6
20240224232204 62 274 4.0 10.0 0.00 0.00 0.00 12 1014.6
20240224231704 62 284 5.0 10.0 0.00 0.00 0.00 12 1014.6
20240224231204 62 276 4.0 11.0 0.00 0.00 0.00 12 1014.6
20240224225704 62 302 5.0 12.0 0.00 0.00 0.00 12 1014.6
20240224225204 62 33 5.0 14.0 0.00 0.00 0.00 12 1014.5
20240224223704 63 311 4.0 13.0 0.00 0.00 0.00 12 1014.5
20240224223204 62 325 5.0 16.0 0.00 0.00 0.00 11 1014.6
20240224222704 62 292 6.0 16.0 0.00 0.00 0.00 12 1014.6
20240224222204 62 317 6.0 20.0 0.00 0.00 0.00 12 1014.6
20240224221704 62 311 7.0 20.0 0.00 0.00 0.00 12 1014.6
20240224221204 62 323 7.0 18.0 0.00 0.00 0.00 12 1014.5
20240224220704 63 284 6.0 16.0 0.00 0.00 0.00 12 1014.6
20240224220204 62 309 6.0 16.0 0.00 0.00 0.00 12 1014.6
20240224215709 62 312 7.0 15.0 0.00 0.00 0.00 12 1014.5
20240224215205 63 286 7.0 16.0 0.00 0.00 0.00 12 1014.6
20240224214704 63 344 7.0 16.0 0.00 0.00 0.00 11 1014.4
20240224213705 63 304 7.0 17.0 0.00 0.00 0.00 12 1014.5
20240224212704 63 281 6.0 17.0 0.00 0.00 0.00 11 1014.4
20240224212205 63 278 6.0 17.0 0.00 0.00 0.00 11 1014.5
20240224211704 64 314 7.0 16.0 0.00 0.00 0.00 11 1014.1
20240224211204 64 267 8.0 16.0 0.00 0.00 0.00 11 1014.2
20240224210204 64 304 8.0 18.0 0.00 0.00 0.00 11 1014.4
20240224205705 63 300 9.0 25.0 0.00 0.00 0.00 11 1014.4
20240224205204 63 284 10.0 26.0 0.00 0.00 0.00 11 1014.4
20240224204704 62 304 12.0 26.0 0.00 0.00 0.00 11 1014.4
20240224204204 62 291 10.0 20.0 0.00 0.00 0.00 10 1014.4
20240224203705 62 273 9.0 20.0 0.00 0.00 0.00 12 1014.4
20240224203204 63 308 8.0 17.0 0.00 0.00 0.00 12 1014.5
20240224202205 62 346 7.0 18.0 0.00 0.00 0.00 12 1014.6
20240224201705 62 266 8.0 18.0 0.00 0.00 0.00 13 1014.7
20240224201205 62 330 8.0 16.0 0.00 0.00 0.00 12 1014.7
20240224200704 62 269 7.0 16.0 0.00 0.00 0.00 13 1014.8
20240224200204 62 304 7.0 16.0 0.00 0.00 0.00 13 1014.8
20240224195704 62 290 7.0 19.0 0.00 0.00 0.00 12 1014.9
20240224195204 62 341 8.0 19.0 0.00 0.00 0.00 13 1015.1
20240224194704 62 295 9.0 21.0 0.00 0.00 0.00 13 1015.1
20240224193705 62 284 9.0 19.0 0.00 0.00 0.00 12 1015.1
20240224193209 62 312 10.0 19.0 0.00 0.00 0.00 12 1015.2
20240224192704 62 319 10.0 19.0 0.00 0.00 0.00 12 1015.1
20240224192204 62 315 9.0 19.0 0.00 0.00 0.00 12 1015.2
20240224191705 62 321 9.0 19.0 0.00 0.00 0.00 12 1015.3
20240224191204 62 302 10.0 19.0 0.00 0.00 0.00 12 1015.3
20240224190704 62 300 10.0 19.0 0.00 0.00 0.00 12 1015.4
20240224190209 62 303 9.0 15.0 0.00 0.00 0.00 11 1015.5
20240224185704 62 325 7.0 14.0 0.00 0.00 0.00 12 1015.8
20240224185204 62 348 6.0 12.0 0.00 0.00 0.00 11 1015.8
20240224184705 62 297 6.0 12.0 0.00 0.00 0.00 11 1015.9
20240224184204 62 294 6.0 13.0 0.00 0.00 0.00 11 1016.0
20240224183704 62 346 5.0 14.0 0.00 0.00 0.00 12 1016.1
20240224183204 62 270 6.0 14.0 0.00 0.00 0.00 13 1016.2
20240224182704 62 279 6.0 14.0 0.00 0.00 0.00 12 1016.2
20240224181705 62 319 4.0 11.0 0.00 0.00 0.00 13 1016.3
20240224180704 60 355 2.0 7.0 0.00 0.00 0.00 17 1016.7
20240224180204 60 46 2.0 7.0 0.00 0.00 0.00 19 1016.7
20240224175704 61 49 1.0 6.0 0.00 0.00 0.00 16 1016.7
20240224175204 60 141 1.0 6.0 0.00 0.00 0.00 15 1016.8
20240224174704 59 138 2.0 6.0 0.00 0.00 0.00 15 1016.8
20240224174204 58 13 2.0 6.0 0.00 0.00 0.00 15 1016.9
20240224173705 58 38 2.0 6.0 0.00 0.00 0.00 16 1016.9
20240224172704 57 85 3.0 7.0 0.00 0.00 0.00 17 1017.0
20240224172204 57 37 3.0 7.0 0.00 0.00 0.00 18 1017.0
20240224171704 59 46 3.0 7.0 0.00 0.00 0.00 15 1017.0
20240224170705 58 110 3.0 6.0 0.00 0.00 0.00 16 1017.2
20240224170204 57 123 3.0 7.0 0.00 0.00 0.00 16 1017.3
20240224165710 57 117 3.0 7.0 0.00 0.00 0.00 18 1017.3
20240224165205 56 111 4.0 7.0 0.00 0.00 0.00 20 1017.4
20240224164705 55 114 3.0 7.0 0.00 0.00 0.00 20 1017.4
20240224163704 54 92 2.0 5.0 0.00 0.00 0.00 24 1017.5
20240224163209 53 113 1.0 6.0 0.00 0.00 0.00 24 1017.6
20240224162704 52 98 2.0 6.0 0.00 0.00 0.00 26 1017.6
20240224162205 51 115 1.0 6.0 0.00 0.00 0.00 28 1017.7
20240224161704 50 96 1.0 5.0 0.00 0.00 0.00 29 1017.7
20240224161204 49 90 1.0 3.0 0.00 0.00 0.00 33 1017.7
20240224160705 49 120 0.0 1.0 0.00 0.00 0.00 34 1018.0
20240224160204 47 121 0.0 1.0 0.00 0.00 0.00 36 1017.7
20240224155204 46 127 0.0 4.0 0.00 0.00 0.00 40 1018.0
20240224154704 44 127 1.0 4.0 0.00 0.00 0.00 42 1018.3
20240224154204 44 128 1.0 3.0 0.00 0.00 0.00 43 1018.2
20240224153704 44 124 0.0 0.0 0.00 0.00 0.00 42 1018.3
20240224153204 43 140 0.0 0.0 0.00 0.00 0.00 45 1018.3
20240224152705 41 140 0.0 0.0 0.00 0.00 0.00 50 1018.4
20240224152204 39 138 0.0 5.0 0.00 0.00 0.00 52 1018.4
20240224151205 36 137 1.0 5.0 0.00 0.00 0.00 55 1018.7
20240224150204 33 221 1.0 5.0 0.00 0.00 0.00 60 1018.6
20240224144704 30 29 0.0 0.0 0.00 0.00 0.00 66 1018.4
20240224144210 29 29 0.0 0.0 0.00 0.00 0.00 68 1018.6
20240224143704 28 28 0.0 5.0 0.00 0.00 0.00 68 1018.4
20240224143205 28 28 1.0 5.0 0.00 0.00 0.00 68 1018.6
20240224142705 27 28 1.0 5.0 0.00 0.00 0.00 68 1018.6
20240224142204 27 37 0.0 0.0 0.00 0.00 0.00 68 1018.7
20240224141704 26 234 0.0 0.0 0.00 0.00 0.00 68 1018.6
20240224141205 26 234 0.0 0.0 0.00 0.00 0.00 68 1018.6
20240224140704 26 234 0.0 0.0 0.00 0.00 0.00 67 1018.4
20240224140204 25 234 0.0 4.0 0.00 0.00 0.00 67 1018.4
20240224135704 26 234 0.0 4.0 0.00 0.00 0.00 65 1018.4
20240224134705 26 234 2.0 5.0 0.00 0.00 0.00 65 1018.6
20240224134205 26 203 1.0 5.0 0.00 0.00 0.00 64 1018.4
20240224133705 26 211 0.0 0.0 0.00 0.00 0.00 63 1018.7
20240224133204 26 66 0.0 0.0 0.00 0.00 0.00 62 1018.4
20240224132704 26 67 0.0 0.0 0.00 0.00 0.00 61 1018.3
20240224132204 27 66 0.0 0.0 0.00 0.00 0.00 60 1018.3
20240224131704 27 66 0.0 0.0 0.00 0.00 0.00 60 1018.4
20240224130704 27 142 0.0 0.0 0.00 0.00 0.00 58 1018.3
20240224130205 28 142 0.0 0.0 0.00 0.00 0.00 57 1018.3
20240224125704 28 143 0.0 0.0 0.00 0.00 0.00 55 1018.3
20240224124704 28 143 0.0 0.0 0.00 0.00 0.00 54 1018.6
20240224124206 29 143 0.0 0.0 0.00 0.00 0.00 53 1018.7
20240224123204 29 143 0.0 0.0 0.00 0.00 0.00 54 1018.6
20240224122704 29 143 0.0 0.0 0.00 0.00 0.00 54 1018.4
20240224122204 29 142 0.0 0.0 0.00 0.00 0.00 56 1018.3
20240224121705 28 142 0.0 0.0 0.00 0.00 0.00 57 1018.4
20240224121205 28 142 0.0 0.0 0.00 0.00 0.00 57 1018.3
20240224120704 28 142 0.0 4.0 0.00 0.00 0.00 58 1018.3
20240224120204 28 142 0.0 4.0 0.00 0.00 0.00 58 1018.3